{"data":{"norad_id":67372,"epoch":"2026-09-20T22:47:41.322912Z","epoch_age_seconds":61244,"freshness":"FRESH","line1":"1 67372U 26004K   26263.94978383  .00000518  00000+0  61671-4 0  9995","line2":"2 67372  97.8075 261.1336 0004574 154.8529 205.2911 14.88443057 37542","mean_motion":14.88443057,"eccentricity":0.0004574,"inclination_deg":97.8075,"raan_deg":261.1336,"arg_perigee_deg":154.8529,"mean_anomaly_deg":205.2911,"bstar":6.1671e-5,"rev_number":3754,"period_min":96.745387284238,"perigee_km":599.60648379665,"apogee_km":605.99264456556,"semimajor_km":6980.9365641811,"source":"CELESTRAK","updated_at":"2026-09-21T09:00:16.593311Z"}}